Location: Auttagershofen
(48.1940°N, 10.0237°E)
Time: 00:16:53
(UTC+00:00)

Cosmos 1328 - Pass Details

Date: 18 January 2026
Orbit: 460 x 472 km, 82.5° (Epoch: 16 February)

Event Time Altitude Azimuth Distance (km) Brightness Sun altitude
Exits shadow 05:59:24 - 344° (NNW) 2,326 6.7 -10.5°
Reaches altitude 10° 06:01:03 10° 339° (NNW) 1,649 5.9 -10.2°
Maximum altitude 06:04:31 47° 265° (W) 640 3.8 -9.7°
Drops below altitude 10° 06:07:58 10° 191° (S) 1,641 6.4 -9.2°
Sets 06:10:06 0° 186° (S) 2,515 7.4 -8.8°
